Wind_Speed
15 16 16 17 17 17 18 18 17 16 15 15 13 12 12 12 13 13 13 13 13 13 12 12 11 11 10 10 10 10 9 9 10 10 10 10 10 10 11 12 12 11 10 9 10 10 9 9 7 6 5 4 5 6 8 8 8 8 6 5 3 3 4 2 1 4 9 13 12 11 10 9 8 8 8 9 10 11 12 13 14 14 13 11 9 10 13 16
16 16 17 17 18 18 19 19 19 18 17 16 15 13 13 13 13 13 14 14 13 13 12 12 12 12 11 11 10 10 10 10 10 10 11 11 11 11 11 12 12 12 12 11 12 12 11 11 9 8 7 6 6 5 7 8 8 8 5 5 5 4 3 2 2 4 9 12 11 10 8 8 8 7 7 7 8 9 10 11 13 15 14 12 11 11 13 16
17 17 18 18 19 20 21 21 21 20 18 18 16 14 14 13 13 13 13 14 14 13 12 12 12 12 12 12 11 11 11 11 11 11 11 12 12 12 12 12 12 12 13 13 13 14 13 12 12 10 9 8 6 5 6 7 7 8 6 5 7 6 3 2 3 5 9 12 11 10 8 7 7 7 7 6 7 9 9 9 11 14 15 13 12 11 13 15
18 18 19 19 20 21 22 22 21 20 19 18 17 15 15 13 13 12 13 13 14 13 12 12 12 12 12 12 12 12 12 12 12 12 13 13 13 13 13 13 13 13 14 14 14 15 14 14 14 12 11 9 7 5 5 6 7 8 8 6 7 7 4 3 6 7 9 12 11 10 8 6 6 8 8 8 8 8 8 8 10 12 14 14 13 12 12 14
18 19 20 20 21 22 23 23 22 20 19 18 17 15 15 14 13 12 12 12 13 13 12 12 11 11 11 12 12 12 12 12 12 13 14 14 14 14 14 14 14 14 14 15 15 16 16 16 15 14 12 10 8 7 6 6 7 8 8 7 7 8 6 4 8 10 10 12 12 11 8 6 7 9 10 10 9 9 8 7 9 11 12 13 14 13 12 13
19 20 20 21 22 23 23 23 22 20 18 17 16 15 14 13 12 12 12 12 13 12 12 11 11 11 11 12 12 13 12 12 13 14 14 15 15 15 15 16 16 15 15 16 16 17 17 17 16 16 14 11 9 8 7 6 8 8 7 8 7 8 7 5 10 13 12 13 13 12 9 7 8 9 10 11 11 12 10 9 9 11 11 11 12 12 12 13
20 21 22 23 23 24 24 23 22 20 18 16 15 14 13 12 12 12 12 12 12 11 11 11 11 11 11 11 12 13 13 13 13 14 15 16 16 16 16 17 17 16 16 17 17 17 18 18 18 17 14 13 11 10 9 8 8 8 6 8 8 8 6 6 11 14 12 13 14 12 10 8 8 7 9 10 12 13 13 12 11 11 11 10 10 11 12 12
21 21 22 23 24 25 24 23 21 19 17 16 15 14 12 11 11 12 12 12 11 11 10 10 10 10 11 11 12 12 12 13 13 14 15 16 16 17 17 17 18 17 17 17 18 18 19 19 19 17 15 14 13 12 11 8 8 8 7 9 9 8 5 6 12 13 11 12 12 12 10 8 8 6 8 10 12 13 13 13 12 12 12 11 10 10 11 12
21 22 23 24 25 25 24 23 20 18 16 15 14 13 12 12 11 12 11 11 11 10 10 10 10 10 10 11 11 11 11 12 12 13 14 15 16 17 17 17 18 18 18 18 18 19 20 21 20 18 16 16 14 13 11 9 10 10 10 10 11 9 3 6 13 12 11 11 11 13 10 9 8 7 8 10 11 13 14 14 12 12 13 12 10 9 10 11
22 23 24 25 26 25 24 22 19 17 15 13 12 12 12 12 11 11 11 10 10 10 10 10 10 10 10 10 10 10 10 10 11 11 12 13 14 15 16 17 18 18 18 18 19 20 21 21 20 18 18 17 15 14 11 11 13 12 12 12 13 11 3 7 14 12 12 12 12 13 11 10 9 8 8 10 11 12 14 14 13 12 12 12 11 10 10 11
24 25 25 26 26 26 24 21 19 16 14 12 12 12 12 12 11 11 10 10 9 9 9 9 9 9 9 9 9 8 8 8 8 8 8 9 10 11 12 14 15 17 18 18 19 21 21 20 18 18 18 17 16 15 13 13 14 12 13 12 14 15 8 8 13 12 12 12 11 10 10 10 10 9 9 9 11 12 13 14 14 13 12 12 11 10 10 11
25 26 26 27 26 25 23 20 18 15 13 12 12 12 12 12 11 10 9 9 8 9 9 9 9 9 9 8 7 7 7 6 5 5 5 5 5 6 7 8 11 14 15 16 18 20 20 18 17 17 17 17 16 14 14 15 14 13 14 13 14 16 13 11 13 14 13 12 11 10 9 10 11 10 10 10 11 12 13 14 14 13 12 12 12 11 11 11
25 26 27 27 26 24 22 19 16 14 13 12 12 13 12 11 10 9 9 8 8 8 8 9 9 9 8 7 6 6 6 5 4 4 3 3 2 2 2 3 4 7 10 13 16 17 16 16 16 16 16 17 16 14 16 16 15 15 15 14 13 14 15 15 16 17 16 15 14 12 11 12 12 12 11 11 11 13 14 15 14 14 13 13 13 12 12 12
25 26 27 27 26 23 20 17 15 14 13 13 13 12 12 11 10 9 8 7 7 7 8 8 8 8 7 6 6 5 6 5 4 3 3 3 2 1 1 1 1 1 3 7 11 12 13 14 15 16 17 17 16 16 16 15 16 16 16 14 14 13 15 17 19 19 18 17 16 14 14 15 15 15 13 13 13 14 15 15 16 15 14 14 14 14 12 12
25 26 27 26 25 21 18 16 15 14 14 13 13 12 11 10 9 9 8 8 8 8 8 8 8 7 6 6 5 4 5 5 4 3 3 3 3 2 1 1 2 3 2 1 4 7 10 13 14 16 17 17 16 15 14 14 15 16 16 15 14 14 15 17 20 21 20 18 18 17 17 18 17 17 16 15 14 15 15 16 16 16 16 14 14 14 13 13
25 25 26 26 24 20 17 15 14 14 14 13 12 12 11 10 10 9 9 9 9 9 8 8 8 6 5 5 5 3 3 3 3 3 3 3 4 3 2 1 1 1 2 2 1 3 7 10 13 15 18 18 17 16 14 15 16 15 15 16 14 15 15 17 21 23 21 20 20 19 19 19 19 19 17 16 16 16 16 17 17 17 16 15 15 15 15 14
24 25 25 25 23 19 15 14 14 15 14 13 12 11 10 10 9 9 9 10 10 9 8 8 7 5 4 4 4 4 3 2 3 3 3 3 4 4 4 3 2 2 1 1 1 3 6 9 12 16 19 18 17 17 17 18 18 16 16 16 15 17 16 15 19 23 23 21 21 20 18 18 19 20 20 18 18 18 18 18 18 17 17 16 16 16 16 16
23 24 24 24 22 18 14 13 14 16 14 13 12 10 10 9 9 9 10 10 10 8 7 7 6 4 4 3 3 4 4 4 3 3 3 4 4 4 5 5 4 4 3 4 3 4 5 8 12 16 18 19 20 21 21 22 22 18 18 18 17 18 19 17 18 22 24 23 21 20 19 17 16 18 21 20 19 19 20 20 20 18 18 18 17 17 17 16
23 22 23 23 21 18 14 12 14 16 14 12 11 10 9 9 8 9 10 10 9 7 6 7 5 4 4 3 1 3 4 5 5 5 4 4 4 5 6 6 5 5 5 6 6 6 6 8 11 15 19 21 22 23 23 22 21 19 19 20 19 18 20 21 22 24 25 24 23 21 20 18 15 16 21 23 22 21 21 20 21 20 19 19 18 17 17 16
22 21 21 21 20 17 14 12 13 15 13 12 10 9 8 8 8 9 9 9 9 8 7 7 6 7 6 5 4 3 2 3 4 5 5 5 5 5 6 7 7 7 7 8 9 8 9 10 11 13 18 21 21 21 22 22 21 20 20 21 21 20 20 23 25 25 25 24 23 22 20 17 16 16 19 24 24 22 22 20 21 21 20 20 19 17 17 17
22 21 20 20 18 16 13 11 13 14 12 11 10 8 7 8 8 9 9 9 9 8 9 9 8 8 8 8 7 6 4 3 2 3 4 5 5 6 6 7 8 8 8 9 10 11 12 12 11 11 15 19 22 22 22 22 22 21 21 22 21 20 21 23 25 25 24 24 23 22 21 17 17 17 18 24 26 23 23 22 21 22 22 21 19 18 18 17
21 20 19 18 17 15 13 11 12 13 12 10 9 8 7 7 7 8 8 9 8 9 9 8 7 7 7 7 7 7 6 5 4 2 2 3 5 6 7 8 8 8 9 11 13 13 14 13 12 12 14 18 22 23 21 20 21 20 22 22 21 22 23 22 23 25 23 23 24 23 22 19 18 18 18 22 26 24 25 25 24 24 23 22 20 18 18 17
21 19 18 17 16 14 12 11 12 12 11 9 8 7 6 7 7 7 8 8 8 9 9 7 6 7 7 7 7 8 7 7 7 5 3 2 3 5 7 8 9 10 11 13 14 15 15 15 13 13 14 16 20 23 22 20 20 21 22 22 22 25 25 22 22 23 22 23 25 24 23 21 19 19 18 21 28 27 26 26 25 26 25 24 22 20 19 18
21 19 17 16 15 14 12 11 11 11 10 8 8 7 6 6 6 7 8 7 8 9 9 7 7 6 7 8 8 8 9 10 9 7 5 3 1 3 6 8 9 11 12 14 15 16 17 15 14 15 15 16 18 21 23 21 21 22 22 23 24 25 26 25 24 23 22 24 25 24 23 23 21 20 18 21 30 29 26 26 24 25 26 25 24 22 21 21
20 19 17 16 15 14 11 10 11 10 9 8 7 6 5 5 6 7 7 7 8 10 10 8 7 7 8 8 8 9 10 10 9 8 7 5 3 1 3 6 9 10 11 13 14 16 17 16 16 17 17 17 18 20 23 23 23 22 22 24 26 25 26 26 25 23 22 22 24 23 21 20 22 22 15 16 29 33 29 29 27 26 27 25 25 23 22 22
20 18 17 16 15 13 12 10 10 10 8 7 6 6 5 5 6 6 7 7 8 10 10 9 9 9 8 8 9 9 9 9 10 9 8 7 5 3 2 4 7 8 9 11 13 15 16 17 18 18 16 15 16 18 22 24 22 21 23 24 25 27 27 26 25 25 23 21 22 23 21 19 21 24 17 12 23 34 32 31 31 28 26 25 25 24 23 21
19 18 17 15 15 13 12 11 10 9 8 6 6 6 5 6 6 6 7 6 8 10 10 10 10 9 9 9 10 10 9 9 10 9 8 7 5 4 3 3 5 7 8 10 13 15 17 17 17 17 15 14 15 18 22 24 22 23 25 24 25 28 28 26 26 26 27 25 21 23 24 22 21 24 21 14 17 30 34 31 31 29 27 27 26 25 25 21
19 18 17 16 15 14 13 12 11 9 8 7 6 6 6 6 6 6 7 6 7 9 9 9 9 9 10 10 10 10 9 9 9 8 8 6 5 4 2 2 4 7 9 12 15 16 16 17 16 16 15 15 16 19 22 23 24 26 26 24 26 29 28 27 27 27 28 27 23 24 25 23 22 23 24 19 15 24 36 33 30 31 29 28 28 26 26 23
19 18 17 16 15 14 13 12 12 11 9 8 7 7 6 6 6 5 6 5 6 7 7 8 9 9 10 10 10 10 10 10 9 9 8 6 5 4 2 3 6 8 10 13 15 15 15 15 15 15 16 16 18 19 21 23 25 25 24 24 26 27 27 28 28 28 28 26 24 26 26 22 21 23 25 24 16 18 35 36 30 32 31 29 30 28 27 25
19 18 18 17 16 14 13 13 13 12 10 9 8 7 7 7 6 5 5 5 6 6 7 8 8 9 9 10 11 11 10 10 10 9 9 7 6 4 3 4 6 8 10 12 14 14 14 15 14 14 15 16 18 19 21 23 24 24 23 24 25 26 27 27 28 29 27 25 25 27 27 24 21 23 25 25 18 14 28 38 33 31 32 31 31 31 28 26
19 18 18 17 16 15 14 13 13 12 11 10 9 8 8 7 6 5 5 5 5 6 7 8 8 8 8 9 10 10 10 10 10 9 9 8 7 5 4 4 5 7 9 10 12 14 14 14 14 15 15 16 17 19 21 22 23 23 23 24 25 27 28 27 28 29 25 24 27 27 27 26 24 23 22 23 21 14 18 33 37 33 31 31 31 32 31 27
19 19 18 18 17 16 15 14 13 13 12 11 10 9 9 8 7 6 5 4 5 6 6 7 8 8 8 9 9 10 10 10 9 9 8 8 7 6 5 4 5 4 5 7 9 11 13 13 14 14 15 16 17 18 20 21 22 22 22 24 26 26 27 27 27 27 24 23 26 26 26 26 25 24 21 20 22 19 15 23 36 38 33 31 32 31 31 29
19 19 18 18 18 17 16 15 14 13 12 12 11 10 9 9 8 7 6 5 6 6 6 6 7 8 8 8 9 9 10 10 9 9 8 7 7 7 6 5 4 4 5 7 6 6 8 11 13 14 15 15 16 17 18 20 21 21 22 24 25 24 24 25 26 25 24 24 26 26 25 24 24 23 21 18 20 22 20 17 28 40 38 33 33 33 32 31
20 19 19 19 18 18 17 16 15 14 13 12 12 11 11 10 10 9 7 7 7 7 7 7 7 7 8 8 9 9 9 9 9 9 8 7 7 7 7 6 5 6 7 7 7 6 5 9 13 14 14 13 14 17 18 19 20 20 22 23 23 22 22 25 26 24 24 26 26 25 23 21 24 23 20 19 18 21 24 19 19 33 41 37 35 35 34 33
20 20 20 19 19 18 17 16 15 15 14 13 12 12 11 11 10 9 9 8 8 8 8 8 8 7 7 8 9 9 10 9 8 8 8 7 7 7 8 7 6 6 6 4 7 8 6 9 14 13 12 12 13 16 18 18 19 20 22 23 23 24 24 25 25 23 24 24 23 23 21 21 25 24 20 19 19 20 23 21 16 21 37 41 37 37 36 34
20 20 20 20 19 19 18 17 16 16 15 14 13 12 12 12 11 10 9 10 9 9 9 9 8 8 8 8 9 10 11 11 9 9 8 7 7 7 7 7 7 7 6 6 7 6 4 10 16 13 13 13 12 14 17 18 18 19 20 22 24 24 23 23 21 23 26 23 19 20 20 21 23 24 21 19 19 20 21 21 17 17 31 44 41 38 38 34
21 20 20 20 19 19 19 18 17 16 16 15 14 13 14 14 13 11 10 10 11 11 11 10 9 9 8 8 9 10 11 12 10 10 10 9 9 8 8 8 7 7 8 8 8 8 7 9 13 12 12 13 13 14 17 18 19 19 19 20 22 20 21 22 18 20 26 25 20 18 19 21 22 22 22 20 19 20 19 21 22 17 23 44 46 39 39 35
22 21 21 21 20 20 19 19 18 17 17 16 15 15 15 15 13 11 10 11 12 12 12 12 11 10 9 9 10 10 10 12 11 10 12 11 10 10 9 9 8 8 9 8 9 11 11 9 10 12 13 14 14 15 18 19 19 20 19 20 20 19 21 24 21 19 23 24 21 19 18 20 21 21 22 20 18 19 17 19 25 20 17 39 51 43 40 38
23 23 22 21 21 20 19 19 19 18 17 17 17 16 16 15 14 12 12 12 13 13 13 13 12 11 10 10 10 10 10 11 12 11 13 13 12 11 10 10 10 9 10 10 10 12 13 11 11 12 13 15 16 16 18 19 19 20 20 20 21 20 20 22 23 21 21 22 21 19 17 17 19 20 20 20 19 18 17 17 23 23 15 28 51 49 39 39
24 24 23 22 21 20 20 20 20 19 18 18 18 18 18 17 14 14 14 14 14 15 15 14 14 13 11 10 11 11 10 11 12 12 13 14 13 13 12 11 11 10 10 11 11 12 13 13 12 11 10 13 17 18 18 19 21 20 17 18 21 22 22 22 23 21 20 23 21 18 16 15 16 18 18 19 19 18 18 17 19 24 18 17 39 51 43 39
25 25 24 23 22 21 20 20 20 19 19 19 20 20 19 18 16 16 16 16 16 16 16 15 15 14 12 11 11 12 11 10 10 11 13 14 15 15 13 11 11 11 10 11 12 12 13 15 16 15 11 12 17 19 18 20 21 19 17 16 16 18 20 22 22 21 21 24 21 18 17 15 15 17 17 18 19 18 19 18 17 22 22 15 23 43 48 43
26 26 25 24 23 22 21 21 20 20 21 21 22 21 20 19 19 18 18 17 17 17 17 17 16 15 13 12 12 12 12 11 10 11 13 15 16 16 15 12 11 10 10 12 13 13 13 15 18 19 18 15 16 16 19 21 21 20 20 18 15 16 19 20 20 19 20 22 21 19 19 16 13 15 17 17 17 17 18 19 17 18 23 19 16 28 44 48
27 26 25 25 24 23 22 21 20 21 22 22 22 22 22 21 21 20 19 18 18 18 18 18 17 16 14 13 12 12 12 11 11 12 13 16 18 17 16 13 12 11 11 12 14 13 14 15 17 20 22 20 19 18 19 22 22 21 21 19 16 17 18 19 18 18 20 21 20 20 20 14 9 11 15 15 15 16 16 18 17 17 21 22 18 20 36 47
27 27 26 25 25 24 23 21 21 21 22 22 23 23 23 23 23 22 21 20 19 19 19 19 18 17 15 13 13 13 13 12 11 12 14 16 17 17 16 14 13 12 12 12 13 13 14 15 16 19 21 20 20 21 21 22 22 21 21 20 18 16 17 17 17 17 17 16 17 20 19 12 6 8 12 14 14 15 15 15 15 17 19 21 20 20 30 41
28 28 26 26 25 25 24 23 22 22 22 22 23 24 24 24 24 23 22 21 20 20 20 20 19 17 15 13 14 13 12 12 12 13 15 17 18 18 17 15 14 14 13 13 13 12 13 15 15 18 20 18 18 20 21 21 21 21 21 20 19 17 17 17 17 16 13 13 17 19 16 11 7 8 11 12 12 13 14 14 14 15 18 19 19 21 29 38
29 28 27 26 25 25 25 24 24 24 23 23 23 23 24 24 25 24 23 22 21 20 21 21 19 17 16 15 15 14 12 12 13 14 14 16 19 19 18 16 15 15 14 13 13 12 13 14 14 16 20 20 20 21 21 19 20 21 22 21 20 20 19 17 17 17 14 14 17 15 12 10 6 5 8 11 12 12 12 13 14 14 16 18 19 22 31 40
29 28 27 26 25 25 25 25 25 26 25 25 25 23 23 25 25 24 24 23 22 21 21 21 20 18 16 16 16 15 13 12 13 14 14 16 18 18 17 17 16 16 16 15 13 12 12 13 14 15 18 20 21 24 25 23 21 21 21 20 19 22 22 18 18 19 16 16 17 12 10 10 6 3 6 11 13 12 11 12 13 13 14 15 15 20 34 43
29 28 27 26 26 25 25 25 26 27 27 28 27 25 25 25 25 25 25 24 23 22 22 22 21 18 17 18 17 16 14 13 13 14 14 15 16 16 17 17 17 18 18 16 14 13 12 13 14 15 17 18 19 22 26 28 27 25 23 21 19 21 22 21 20 20 18 19 18 13 10 12 10 5 7 12 15 13 12 12 13 14 14 13 12 15 36 47
28 28 27 27 26 26 25 25 25 27 28 29 29 28 27 27 26 27 27 25 25 24 23 23 21 20 20 20 18 16 15 15 14 14 14 14 14 16 16 17 19 19 18 18 16 15 14 14 13 13 16 18 18 19 22 25 28 29 28 25 23 22 22 22 22 21 21 21 19 15 13 14 13 9 8 12 16 15 12 11 13 15 17 16 11 12 31 50
28 28 27 27 27 27 26 26 26 27 28 28 29 29 29 29 29 28 27 26 26 26 25 24 23 23 22 21 18 16 15 16 16 15 15 14 14 15 16 17 19 19 19 19 18 16 16 16 15 14 15 17 18 19 21 23 25 28 30 30 28 26 24 24 23 22 23 23 20 18 18 17 16 14 13 13 16 15 12 10 11 13 17 19 13 12 22 47
27 27 27 28 28 27 27 27 27 28 28 28 29 29 29 30 31 29 28 28 28 28 26 25 25 23 22 21 17 14 15 18 18 17 16 15 15 16 16 17 18 20 20 19 19 18 18 18 18 16 16 18 18 18 20 23 23 25 28 30 31 30 29 27 24 23 23 24 22 21 22 20 18 18 17 16 15 15 14 12 11 10 11 14 12 9 11 36
27 27 27 28 28 27 28 28 28 29 30 29 29 30 30 31 31 30 30 29 29 29 28 26 25 24 23 21 16 14 18 21 20 18 16 15 15 16 16 17 18 19 20 20 20 20 19 19 20 19 17 19 20 19 20 22 22 24 26 28 29 32 32 30 27 25 24 24 23 24 24 22 20 21 21 19 17 17 17 14 12 12 10 10 11 8 5 21
Wind_Direction
5 2 359 356 354 351 348 345 341 337 334 330 322 315 309 302 298 295 294 293 293 294 296 296 293 290 286 282 280 276 276 272 267 264 259 253 247 240 233 233 230 227 226 226 232 234 234 233 226 221 228 221 195 175 176 173 160 157 160 173 139 126 178 102 75 207 173 169 172 171 166 156 152 150 153 151 143 141 139 132 127 120 114 115 134 155 144 129
359 357 354 352 349 347 344 341 338 334 331 328 322 315 309 301 297 294 294 295 295 295 295 294 292 291 287 284 281 277 275 272 269 266 262 257 252 247 238 237 234 228 224 223 228 233 234 235 231 224 224 227 211 188 181 173 163 166 163 175 166 140 167 116 75 184 175 175 178 176 171 158 152 150 153 153 140 137 139 136 131 126 121 125 141 155 144 131
354 353 350 349 347 344 341 339 336 332 329 326 321 314 309 303 297 295 295 296 297 297 297 294 290 288 286 284 280 276 273 270 268 265 262 258 254 251 244 241 237 231 226 223 227 232 234 235 235 229 225 229 218 202 192 175 167 175 174 180 183 170 165 152 155 182 182 182 181 179 176 164 152 142 141 145 135 133 138 139 138 133 130 136 145 153 145 133
351 350 348 347 345 342 340 337 335 331 327 324 320 314 311 306 301 298 298 299 298 298 299 296 290 286 284 282 279 276 273 269 266 262 260 258 255 252 248 244 238 234 230 224 225 231 234 236 237 234 228 229 221 215 203 184 178 179 184 194 189 183 187 175 169 181 189 186 184 183 179 163 141 127 133 140 134 134 142 145 145 139 138 142 146 153 147 134
350 349 348 346 344 342 339 337 334 330 326 323 319 314 312 308 305 304 303 303 299 298 298 296 292 287 283 280 278 276 273 268 263 261 260 259 257 254 251 247 241 236 231 228 226 228 233 235 238 237 233 230 221 221 214 196 191 186 193 198 188 187 196 202 183 182 189 189 190 189 180 153 135 132 142 146 140 142 147 148 146 142 143 148 150 154 150 138
350 349 348 346 344 342 340 337 334 331 327 323 319 316 314 311 309 310 310 307 302 300 298 296 293 289 284 280 277 274 272 267 261 259 259 258 258 256 254 251 246 239 233 231 228 227 232 234 237 238 236 233 225 223 217 209 202 196 202 194 187 191 198 217 195 183 183 189 193 192 181 154 144 149 152 151 147 147 145 142 143 142 144 152 156 157 152 144
351 350 349 347 346 344 341 339 335 331 328 324 321 319 317 315 315 315 314 310 307 304 301 298 295 291 286 281 277 274 271 267 261 258 257 256 256 255 254 253 250 246 238 235 231 229 230 232 235 237 237 234 230 227 221 219 210 207 211 194 185 187 195 218 197 183 180 189 195 194 184 163 154 159 158 154 150 147 145 143 144 143 145 156 164 161 155 148
351 351 350 349 347 345 343 339 336 332 329 325 324 323 323 324 322 319 316 314 311 308 304 300 297 294 291 286 281 277 273 270 266 262 258 255 254 252 251 251 250 247 241 237 235 233 231 231 233 234 235 234 232 229 224 222 219 218 217 199 183 178 195 212 192 182 181 187 194 196 190 171 161 160 162 158 153 150 148 146 146 147 148 161 170 167 160 151
352 352 351 350 348 347 344 341 337 334 331 328 328 330 331 330 327 324 321 318 314 311 308 304 301 298 294 291 286 281 278 275 271 266 261 257 254 251 249 247 247 245 241 236 235 235 234 232 231 230 232 232 231 230 224 220 226 223 215 203 185 177 194 192 181 178 181 183 190 197 195 181 173 171 168 163 158 157 153 150 151 153 153 160 171 174 166 155
352 352 352 351 349 347 344 342 340 339 336 334 335 336 335 333 332 330 327 322 319 315 312 309 306 302 297 292 287 284 281 276 271 266 263 260 256 253 250 247 245 244 241 236 234 234 234 234 232 229 231 231 229 230 222 218 228 224 215 210 191 182 177 173 179 184 184 183 188 195 195 190 186 178 174 168 163 163 160 155 155 158 157 158 167 178 172 160
352 353 352 351 349 348 346 344 344 344 342 341 340 339 338 337 337 335 331 327 324 320 318 313 310 305 299 293 287 283 280 274 271 270 266 261 258 256 252 249 246 243 242 239 236 235 234 235 233 230 232 232 230 229 225 223 230 227 219 216 200 192 186 172 183 195 194 192 193 196 195 195 194 182 180 180 167 167 168 161 159 159 160 160 165 179 177 167
352 353 352 351 350 348 347 347 348 349 348 346 343 341 341 341 340 339 336 334 331 327 322 317 313 308 300 293 287 281 277 270 271 274 268 263 263 260 255 250 247 245 242 240 239 239 237 234 231 229 231 232 232 229 229 228 229 230 225 220 211 202 198 189 186 193 199 203 204 203 197 196 201 193 188 189 172 169 173 167 163 161 162 164 166 176 181 174
351 352 352 351 350 349 349 350 352 355 353 349 346 345 345 345 345 344 343 343 340 334 328 324 319 312 303 294 287 281 275 268 268 269 266 271 270 268 270 260 255 250 244 241 241 241 239 235 229 225 226 230 230 228 230 229 225 227 226 222 219 211 209 206 195 190 196 206 212 213 204 199 203 201 195 192 178 171 176 172 166 164 165 168 166 173 181 177
351 352 352 352 351 350 350 353 356 358 353 349 348 348 349 349 349 349 351 352 349 343 339 334 328 320 311 300 290 279 271 267 266 260 260 272 275 277 320 32 37 6 246 239 240 239 233 228 224 219 221 225 225 225 229 233 230 227 225 222 222 221 218 214 205 198 196 202 212 217 214 208 205 203 198 193 185 176 177 176 172 168 167 170 169 170 180 179
350 351 351 352 351 350 351 355 359 357 351 350 351 351 351 352 353 355 357 357 356 354 352 349 343 333 319 303 289 272 260 258 255 248 251 262 271 268 240 101 78 72 70 209 231 229 222 218 215 212 214 220 222 222 226 232 232 229 224 221 221 227 228 220 213 207 201 202 208 215 221 220 212 206 200 194 189 181 179 180 177 173 168 171 173 171 179 183
349 349 350 351 351 349 351 357 360 355 351 351 352 353 355 357 357 359 1 3 3 2 7 7 357 340 317 298 289 279 254 245 248 248 248 250 254 253 235 194 144 106 79 90 153 199 209 209 205 204 207 212 215 214 217 225 230 227 223 221 220 226 232 226 219 213 208 206 206 212 222 226 223 215 206 197 192 185 181 183 182 177 171 170 176 175 180 186
346 348 348 350 350 347 349 356 358 354 351 352 353 356 359 0 2 5 8 9 7 9 17 16 5 345 322 304 291 290 281 265 264 261 256 248 239 237 234 220 199 198 185 168 157 178 196 196 195 199 202 205 208 210 213 217 220 219 215 218 221 222 227 228 224 219 215 212 210 215 221 226 228 224 213 201 195 189 185 185 184 182 174 171 179 181 182 188
344 345 346 348 348 345 345 352 354 352 351 351 353 358 2 4 7 12 14 14 12 15 23 17 7 353 339 318 279 278 283 283 282 277 265 251 237 228 230 231 221 218 221 220 214 201 200 195 195 198 199 201 203 203 209 213 213 211 208 213 220 222 224 226 227 223 219 218 219 222 223 225 229 226 216 205 197 193 190 187 185 185 179 174 180 185 184 188
342 343 344 346 347 344 342 346 349 349 349 349 353 359 3 7 12 17 18 16 17 25 26 15 10 11 13 14 325 279 274 271 274 277 268 250 238 229 229 233 230 227 226 224 224 217 211 204 198 199 200 202 202 203 211 216 212 208 204 208 215 218 220 225 228 226 222 223 225 227 227 228 231 228 217 206 198 196 194 190 186 186 183 180 183 186 186 189
339 340 341 343 344 342 339 340 343 345 346 347 351 357 2 10 16 19 19 15 18 26 19 13 15 17 21 27 26 11 323 276 268 268 262 254 246 237 233 234 236 235 230 226 227 224 220 216 207 206 207 205 204 207 214 218 216 213 208 210 215 218 221 227 230 228 225 225 226 228 228 230 237 234 219 207 199 195 195 192 189 187 185 185 186 187 187 191
336 337 338 340 342 340 337 336 338 342 343 344 347 352 1 12 16 18 17 13 17 19 13 12 16 15 17 18 17 16 12 359 323 279 263 257 250 246 239 235 236 236 234 228 226 225 225 224 217 214 213 208 208 211 215 219 220 218 216 215 217 222 228 233 235 232 229 228 226 227 225 228 237 237 226 212 201 194 194 193 190 188 188 189 189 187 187 190
334 334 335 337 339 337 335 334 337 340 340 339 343 348 1 11 16 17 13 12 15 14 11 12 15 15 18 17 12 15 20 24 24 354 295 270 255 249 240 235 235 233 230 227 227 228 229 229 223 219 217 214 215 217 220 226 226 222 220 218 216 222 225 231 237 234 231 229 225 226 224 225 232 235 235 221 205 198 196 194 191 189 190 192 191 187 185 188
332 331 331 332 334 333 331 332 336 338 337 335 338 346 359 9 15 16 11 11 13 11 10 11 15 17 18 20 18 20 26 27 24 17 4 318 260 249 243 239 237 234 231 227 226 227 231 231 227 224 222 221 222 222 224 230 233 228 223 220 218 222 222 222 231 233 234 231 226 225 223 224 228 230 239 225 205 201 201 197 194 192 190 192 191 186 184 188
329 328 327 327 329 329 326 328 334 337 336 331 334 342 353 6 11 10 9 11 12 11 11 11 13 15 19 23 22 23 26 23 19 19 18 8 279 246 241 237 236 236 234 232 229 226 229 231 227 226 225 225 226 226 225 228 234 233 228 224 222 224 225 224 228 230 234 234 228 226 223 225 225 223 240 229 203 199 203 200 199 198 194 193 191 186 185 189
327 325 323 322 323 324 320 322 332 337 336 330 330 336 345 2 7 4 5 8 11 13 13 11 10 15 18 20 24 28 26 20 18 19 17 11 6 303 243 238 238 239 237 236 234 231 231 231 229 230 229 230 231 230 228 228 232 234 232 229 228 229 228 227 227 226 233 238 232 227 224 230 229 222 241 233 201 196 200 200 200 201 198 195 192 188 188 190
325 322 320 317 317 317 314 315 324 333 334 331 328 328 337 354 360 358 359 3 9 10 11 10 9 13 14 13 22 28 23 20 21 20 16 9 4 357 296 250 243 243 241 238 236 234 234 232 232 236 237 239 242 240 236 233 233 234 233 231 233 234 232 230 227 223 228 237 234 229 225 230 234 227 233 237 207 200 199 199 199 199 199 197 193 192 191 192
324 320 317 314 312 311 308 306 312 321 328 329 325 322 329 344 349 350 353 358 2 3 5 7 5 7 9 10 17 20 19 22 22 18 15 10 5 359 332 277 255 244 231 228 232 232 232 232 234 240 243 244 246 243 240 236 232 233 233 231 230 232 233 232 230 225 227 232 233 232 228 227 235 231 227 236 226 208 201 199 199 198 200 198 194 195 195 191
322 319 315 311 309 307 304 300 299 305 313 318 317 315 319 328 333 339 346 351 353 355 357 359 359 0 3 6 8 10 14 19 21 19 16 14 10 354 323 259 249 243 227 222 229 231 232 234 237 242 245 244 242 240 239 237 234 234 235 233 231 232 233 234 234 232 231 231 233 235 232 230 236 238 228 232 245 217 203 200 199 198 199 197 195 198 197 192
319 317 313 310 307 305 303 298 291 292 299 303 304 303 304 309 313 325 335 336 340 346 349 352 354 353 355 358 0 3 6 10 15 16 12 12 10 352 310 245 239 241 234 230 235 238 238 241 244 245 246 243 241 240 239 238 238 238 237 235 234 234 233 235 237 236 234 233 235 237 235 233 238 245 236 233 251 229 205 201 202 200 197 195 195 198 199 194
316 314 312 309 307 304 302 298 291 286 287 289 292 291 290 291 296 311 318 313 321 334 341 345 346 344 345 349 354 356 358 1 4 6 5 3 0 353 321 271 248 241 240 242 246 248 247 250 251 247 247 246 243 240 238 239 240 238 236 236 237 236 235 236 239 239 237 234 237 238 235 233 236 246 245 239 248 243 211 204 204 203 200 195 194 197 199 195
312 312 310 309 307 304 301 299 293 286 280 279 281 280 280 280 282 292 297 291 304 320 330 335 334 334 336 339 342 345 349 351 351 354 356 353 350 344 326 295 266 254 255 254 253 253 254 257 257 251 248 246 244 240 238 240 240 236 235 236 236 237 237 239 243 245 243 239 240 242 239 236 236 243 250 247 244 246 224 210 206 205 204 199 195 197 199 196
308 308 308 307 306 303 299 297 295 291 282 274 273 273 272 273 273 274 274 276 291 304 314 322 323 324 326 328 330 333 338 339 340 346 346 344 341 333 326 308 276 257 255 255 258 261 259 257 257 255 251 246 244 243 239 240 241 236 233 234 234 235 237 240 244 245 245 244 246 247 243 239 239 243 250 255 247 243 242 221 209 206 205 201 199 198 199 197
304 304 304 305 304 303 298 294 293 294 288 276 270 268 267 268 268 265 264 271 284 293 300 308 311 312 313 316 319 323 327 327 328 333 335 336 331 321 319 308 281 240 235 250 264 268 269 271 263 254 252 248 242 242 240 237 237 234 230 231 231 231 235 239 241 241 240 243 246 248 246 242 240 244 248 254 253 245 247 238 215 208 204 201 201 200 199 198
300 300 301 302 302 301 297 293 290 289 288 280 270 265 264 264 265 264 264 268 277 285 290 295 299 305 307 307 311 314 316 316 317 319 323 327 320 311 310 304 287 261 255 263 266 244 243 276 268 252 252 250 240 240 241 237 235 230 227 229 227 226 231 234 236 235 233 237 244 247 247 243 239 244 249 250 251 247 246 250 233 213 205 201 200 200 198 197
296 296 298 298 298 298 295 292 288 283 283 280 271 263 261 261 262 264 265 267 272 280 285 289 296 304 308 304 304 306 306 307 307 306 311 314 303 299 302 297 286 274 262 256 266 252 230 255 260 254 255 251 241 240 241 241 240 232 228 228 225 224 228 229 228 228 227 233 243 246 245 241 238 243 250 251 249 247 243 246 252 228 211 205 201 200 199 197
293 294 294 295 295 294 292 290 285 279 277 276 269 260 257 257 258 262 267 268 271 277 280 285 291 300 306 302 297 297 297 301 304 302 303 301 292 291 294 291 284 276 259 236 253 256 231 255 260 255 254 252 246 244 242 240 238 233 230 229 226 225 227 228 229 231 229 231 239 241 240 241 240 244 250 254 252 249 244 235 242 246 218 208 204 201 201 198
291 291 291 292 293 291 289 286 282 277 273 271 267 260 256 255 256 260 266 269 270 273 277 280 286 293 298 298 293 291 291 295 299 299 299 298 294 292 291 289 285 273 263 251 249 239 222 249 261 252 249 252 249 248 246 241 236 234 232 231 231 229 227 225 229 233 228 227 233 234 235 238 239 243 246 251 253 252 251 235 233 253 227 209 205 203 203 201
288 288 288 289 290 289 286 282 278 275 270 268 265 259 255 254 255 259 264 267 268 271 274 278 281 284 287 289 289 289 288 288 291 292 293 294 293 292 290 289 286 273 264 253 244 240 233 242 259 252 245 246 245 247 249 246 240 235 231 229 231 231 230 227 229 234 228 226 232 233 233 236 236 239 241 242 248 251 256 245 236 252 242 210 206 204 205 205
286 285 285 286 287 286 283 279 275 271 267 265 262 257 254 253 253 258 263 266 267 270 273 276 278 280 282 285 289 292 286 282 285 286 286 288 288 289 287 285 285 275 263 255 245 241 238 238 251 256 247 243 244 244 248 251 248 242 234 230 231 232 234 232 231 237 232 227 231 231 232 237 236 237 239 239 244 247 254 258 244 247 255 216 206 205 205 206
284 283 283 284 284 283 281 277 272 268 264 261 258 256 253 253 253 256 262 266 268 272 273 274 277 278 281 285 288 292 289 282 283 281 279 282 283 283 281 280 282 277 264 259 252 244 240 236 239 250 250 246 244 237 239 249 250 246 239 231 231 234 232 229 233 238 231 224 226 225 228 236 238 238 238 238 242 244 247 261 254 244 253 233 210 206 206 207
282 281 281 281 281 280 279 275 270 265 261 257 255 255 254 254 254 255 260 265 268 272 273 274 277 278 280 285 287 289 289 285 283 276 273 275 275 275 276 275 278 278 268 259 254 247 243 237 234 240 247 251 248 239 236 246 250 250 250 246 242 241 235 231 233 234 226 221 221 223 225 232 239 240 236 233 236 240 242 255 261 245 243 252 223 211 208 208
279 279 278 278 277 277 275 272 268 263 258 255 254 254 254 254 255 256 260 264 266 269 271 272 275 276 276 280 283 287 288 286 283 273 264 263 265 268 272 273 272 273 267 258 254 249 245 244 239 241 246 248 246 238 231 239 247 250 256 260 256 250 243 236 233 233 229 223 222 228 230 230 239 240 232 229 231 234 240 248 257 250 241 248 247 221 212 210
277 277 276 275 274 272 271 269 266 261 258 256 254 254 254 255 256 258 260 262 263 265 267 269 272 273 272 274 278 282 284 286 283 273 262 257 259 263 265 266 267 268 266 261 257 251 248 249 244 243 250 253 250 245 233 233 240 243 252 258 253 251 248 238 239 243 233 225 229 237 236 231 236 234 228 229 228 229 239 245 249 250 244 246 254 237 217 212
275 274 273 272 270 268 266 265 263 261 259 257 255 253 253 254 255 256 257 259 261 262 264 266 268 270 270 269 272 276 280 284 281 273 266 258 256 258 258 258 260 261 262 262 261 257 250 250 247 244 251 259 260 258 248 242 241 239 246 252 248 251 251 243 247 248 232 227 233 234 229 226 233 234 229 230 226 225 235 243 245 245 245 249 253 241 222 215
273 272 271 269 267 265 262 260 260 260 259 257 255 253 252 252 254 255 256 257 258 259 261 263 265 268 268 264 267 271 276 282 281 273 269 262 256 255 254 255 257 257 258 258 259 259 254 252 250 246 247 252 258 259 253 248 246 241 241 245 246 249 250 248 253 251 239 233 228 223 219 216 219 234 235 233 226 225 234 242 246 243 243 251 252 235 221 216
271 270 269 267 264 262 259 257 256 256 257 257 256 254 252 251 252 253 254 254 254 256 258 261 263 265 264 261 263 268 272 278 281 277 272 266 260 257 255 255 256 255 256 259 260 260 258 255 253 251 249 248 250 255 255 251 249 244 238 236 238 242 244 248 252 250 244 232 223 220 219 213 208 218 233 237 230 229 240 246 249 247 244 255 255 232 217 212
268 267 267 265 262 260 258 256 254 254 255 255 255 253 251 250 250 251 252 252 253 254 256 259 261 261 260 259 260 264 268 272 277 277 274 271 267 262 257 254 253 253 255 258 261 261 262 261 258 255 255 253 251 255 257 255 251 246 240 236 234 236 237 241 246 246 240 232 230 229 219 220 229 208 231 252 247 238 248 252 252 253 248 261 268 232 214 211
266 265 264 263 261 259 257 255 254 253 253 253 254 253 250 248 248 248 249 251 252 254 254 256 258 257 255 255 255 259 264 267 271 274 273 274 274 268 259 252 250 252 255 256 258 260 262 263 261 260 261 260 257 256 256 258 257 252 248 246 241 238 237 236 240 243 239 236 240 239 223 229 243 229 233 261 260 251 256 257 256 256 246 257 287 244 216 213
264 262 261 261 260 259 257 255 254 253 252 252 253 253 251 249 248 247 248 250 251 252 253 253 253 251 249 250 252 255 260 266 271 274 274 276 278 275 266 256 250 249 253 255 256 258 261 263 263 262 263 262 259 258 257 257 259 257 254 253 249 245 243 240 238 240 238 237 239 235 226 228 238 237 240 260 265 260 258 258 259 260 248 246 287 275 222 212
261 261 260 259 259 258 258 256 254 253 253 253 253 253 253 251 250 248 248 249 249 250 250 249 249 249 249 250 253 256 262 267 270 273 275 278 279 277 271 263 255 249 249 253 256 257 259 263 263 262 265 266 262 260 258 256 255 256 256 256 253 250 249 249 244 239 239 239 236 233 230 227 228 232 233 246 262 263 256 255 261 268 256 243 267 301 230 212
257 258 259 258 258 258 257 256 255 254 253 252 252 252 252 252 252 251 249 248 247 248 247 246 247 248 250 251 254 260 265 266 265 268 273 276 277 277 274 267 260 253 248 248 253 256 257 260 263 262 264 267 264 261 260 258 256 256 254 254 253 251 250 250 248 244 242 240 236 234 233 230 227 228 228 232 246 256 259 260 257 264 262 241 250 303 243 214
254 256 257 258 258 258 257 257 255 254 253 251 252 251 249 250 251 250 249 248 247 247 247 246 244 244 246 248 248 252 255 257 260 265 269 272 273 275 275 269 262 257 251 247 247 252 255 258 262 263 263 265 266 264 262 260 258 256 252 249 250 250 249 248 247 247 245 241 239 239 238 236 232 229 231 230 230 242 257 263 254 251 254 242 243 283 278 217
Height
5898 5897 5896 5895 5895 5894 5893 5892 5891 5890 5889 5888 5887 5887 5886 5885 5884 5883 5883 5883 5883 5883 5883 5882 5882 5882 5883 5883 5883 5883 5884 5884 5884 5885 5885 5886 5887 5888 5889 5889 5890 5891 5892 5892 5892 5892 5893 5894 5895 5895 5896 5896 5897 5898 5899 5899 5900 5901 5901 5901 5901 5901 5901 5901 5901 5902 5902 5903 5903 5904 5904 5904 5904 5904 5905 5905 5905 5905 5905 5904 5904 5904 5905 5906 5907 5908 5906 5906
5898 5897 5896 5895 5894 5893 5892 5891 5890 5889 5888 5887 5886 5885 5884 5884 5883 5882 5882 5881 5881 5881 5881 5881 5881 5881 5881 5881 5882 5882 5882 5883 5883 5883 5884 5884 5885 5886 5887 5888 5889 5890 5891 5891 5891 5891 5892 5893 5894 5895 5895 5896 5897 5898 5898 5899 5900 5901 5901 5901 5901 5902 5902 5901 5901 5902 5902 5903 5904 5904 5905 5905 5904 5905 5905 5906 5906 5906 5906 5905 5905 5904 5905 5906 5907 5908 5907 5906
5897 5896 5895 5894 5893 5892 5891 5890 5889 5887 5886 5885 5885 5884 5883 5882 5882 5881 5880 5880 5879 5880 5880 5879 5879 5879 5880 5880 5880 5880 5881 5881 5882 5882 5882 5883 5884 5884 5885 5886 5887 5888 5889 5890 5890 5891 5891 5892 5893 5894 5895 5895 5896 5897 5898 5899 5900 5900 5901 5901 5901 5901 5902 5901 5901 5902 5903 5903 5904 5904 5904 5905 5905 5905 5906 5907 5907 5906 5907 5907 5906 5905 5905 5906 5907 5908 5908 5907
5897 5896 5895 5894 5893 5891 5890 5889 5887 5886 5885 5884 5883 5882 5881 5881 5880 5880 5879 5879 5878 5878 5878 5878 5878 5878 5878 5878 5878 5879 5879 5880 5880 5881 5881 5881 5882 5883 5884 5884 5885 5886 5888 5889 5889 5890 5890 5891 5892 5893 5894 5895 5896 5897 5898 5898 5899 5900 5900 5900 5901 5901 5902 5902 5901 5902 5902 5903 5904 5904 5904 5905 5905 5905 5906 5907 5907 5907 5907 5907 5907 5907 5906 5907 5907 5908 5908 5908
5896 5895 5894 5893 5892 5890 5889 5887 5886 5885 5883 5882 5881 5880 5880 5879 5879 5878 5878 5877 5877 5876 5876 5876 5876 5876 5876 5876 5877 5877 5877 5878 5879 5879 5880 5880 5881 5881 5882 5883 5884 5885 5886 5887 5888 5889 5889 5890 5891 5892 5893 5894 5895 5896 5897 5898 5898 5899 5900 5900 5900 5901 5901 5902 5901 5901 5902 5903 5903 5904 5904 5905 5906 5905 5906 5906 5906 5907 5907 5908 5908 5908 5908 5908 5907 5908 5909 5909
5896 5894 5893 5892 5890 5889 5887 5886 5884 5883 5882 5881 5880 5879 5878 5878 5878 5877 5877 5876 5875 5875 5875 5874 5875 5875 5875 5875 5875 5875 5875 5876 5877 5877 5878 5878 5879 5880 5881 5881 5882 5883 5884 5885 5886 5887 5888 5889 5889 5890 5892 5894 5894 5895 5896 5897 5898 5898 5899 5899 5900 5900 5900 5901 5901 5901 5901 5902 5903 5903 5904 5905 5906 5906 5906 5906 5906 5906 5907 5908 5908 5908 5908 5909 5909 5909 5909 5909
5895 5894 5892 5891 5889 5888 5886 5884 5883 5881 5880 5879 5878 5878 5877 5877 5876 5876 5875 5874 5874 5873 5873 5873 5873 5873 5873 5873 5873 5873 5874 5874 5875 5875 5876 5877 5877 5878 5879 5880 5880 5882 5883 5884 5885 5886 5887 5887 5888 5889 5891 5892 5894 5895 5895 5896 5897 5898 5898 5898 5899 5899 5899 5900 5900 5900 5901 5902 5902 5903 5904 5905 5906 5906 5906 5906 5906 5906 5907 5907 5908 5909 5909 5909 5910 5909 5910 5910
5895 5893 5892 5890 5888 5887 5885 5883 5882 5880 5879 5878 5877 5877 5876 5876 5875 5875 5874 5873 5873 5872 5872 5872 5871 5871 5871 5872 5872 5872 5872 5872 5873 5873 5874 5874 5875 5876 5877 5878 5878 5880 5881 5882 5883 5884 5885 5886 5887 5888 5890 5891 5892 5894 5895 5896 5897 5897 5897 5898 5898 5899 5899 5899 5899 5900 5901 5902 5902 5903 5904 5905 5906 5906 5906 5906 5906 5906 5907 5908 5908 5909 5909 5909 5910 5910 5910 5910
5894 5892 5891 5889 5887 5886 5884 5882 5881 5879 5878 5877 5876 5876 5875 5875 5874 5874 5873 5872 5871 5871 5871 5870 5870 5870 5870 5870 5870 5870 5870 5871 5871 5871 5872 5872 5873 5874 5874 5875 5876 5877 5879 5880 5881 5882 5883 5884 5885 5887 5888 5890 5891 5893 5894 5896 5896 5896 5896 5897 5898 5898 5899 5898 5898 5900 5901 5901 5902 5903 5904 5905 5906 5906 5906 5906 5906 5907 5907 5908 5908 5909 5909 5909 5910 5911 5911 5911
5893 5892 5890 5888 5887 5885 5883 5881 5880 5879 5878 5877 5876 5875 5875 5874 5873 5873 5872 5871 5870 5870 5870 5869 5869 5869 5869 5869 5869 5869 5869 5869 5869 5870 5870 5870 5871 5871 5872 5873 5874 5875 5876 5878 5879 5880 5881 5883 5885 5887 5887 5888 5890 5892 5894 5894 5894 5895 5895 5896 5897 5898 5899 5899 5899 5899 5900 5900 5901 5902 5903 5905 5905 5906 5907 5906 5906 5907 5907 5907 5908 5909 5909 5910 5911 5911 5912 5912
5892 5891 5889 5887 5886 5884 5882 5880 5879 5878 5877 5876 5875 5875 5874 5873 5873 5872 5871 5870 5870 5869 5869 5868 5868 5868 5868 5868 5868 5867 5868 5868 5868 5868 5869 5869 5869 5870 5871 5871 5872 5873 5874 5876 5877 5878 5879 5882 5884 5886 5887 5888 5889 5891 5892 5893 5893 5894 5895 5896 5896 5897 5899 5899 5899 5900 5901 5901 5902 5902 5903 5905 5905 5906 5907 5907 5907 5907 5908 5908 5908 5909 5910 5910 5911 5912 5912 5913
5891 5890 5888 5886 5885 5883 5881 5880 5878 5877 5877 5876 5875 5874 5873 5873 5872 5871 5870 5870 5869 5868 5868 5868 5867 5867 5867 5866 5867 5867 5867 5867 5867 5867 5867 5868 5868 5869 5869 5870 5870 5871 5872 5874 5875 5876 5878 5881 5883 5885 5886 5887 5888 5890 5890 5891 5892 5893 5894 5895 5896 5897 5898 5898 5898 5899 5901 5902 5902 5902 5903 5904 5905 5905 5906 5907 5907 5907 5908 5908 5909 5909 5910 5911 5911 5912 5913 5913
5890 5889 5887 5885 5884 5882 5880 5879 5878 5877 5876 5875 5875 5874 5873 5872 5871 5870 5870 5869 5868 5868 5867 5867 5866 5866 5865 5865 5866 5866 5866 5866 5866 5867 5867 5867 5868 5868 5868 5869 5869 5870 5871 5872 5873 5875 5877 5879 5881 5883 5884 5885 5887 5888 5888 5890 5891 5892 5893 5894 5896 5897 5897 5897 5898 5898 5899 5901 5901 5902 5903 5903 5904 5905 5905 5906 5907 5907 5908 5908 5909 5909 5910 5911 5911 5912 5913 5914
5890 5888 5886 5885 5883 5881 5880 5879 5878 5877 5876 5875 5874 5873 5872 5871 5870 5869 5869 5868 5868 5867 5867 5866 5865 5865 5864 5864 5865 5865 5865 5865 5865 5866 5866 5867 5867 5867 5868 5868 5869 5869 5870 5871 5871 5873 5875 5877 5879 5881 5882 5883 5885 5886 5887 5889 5890 5891 5892 5894 5895 5895 5895 5896 5897 5897 5898 5899 5900 5901 5902 5902 5902 5904 5905 5905 5906 5907 5908 5908 5909 5909 5910 5911 5912 5912 5914 5914
5889 5887 5886 5884 5883 5881 5880 5879 5878 5877 5876 5875 5874 5872 5871 5870 5869 5869 5868 5868 5867 5866 5866 5865 5864 5864 5863 5863 5864 5864 5864 5864 5865 5865 5866 5866 5866 5867 5867 5868 5868 5869 5869 5870 5870 5872 5873 5875 5877 5879 5880 5881 5883 5885 5887 5888 5889 5890 5892 5893 5894 5894 5894 5895 5895 5896 5897 5898 5899 5899 5900 5901 5902 5903 5903 5904 5905 5907 5908 5908 5909 5909 5910 5911 5912 5912 5913 5914
5888 5887 5885 5884 5882 5881 5879 5879 5878 5877 5875 5874 5873 5872 5871 5870 5869 5868 5868 5867 5866 5866 5865 5864 5864 5863 5863 5863 5863 5863 5864 5864 5864 5864 5865 5865 5866 5866 5867 5867 5868 5869 5869 5870 5870 5870 5871 5873 5875 5876 5878 5879 5881 5884 5886 5887 5888 5889 5890 5892 5893 5893 5893 5894 5894 5894 5895 5896 5897 5898 5898 5900 5901 5902 5903 5904 5905 5906 5907 5908 5909 5909 5909 5911 5912 5913 5913 5914
5888 5886 5885 5883 5881 5880 5879 5878 5877 5876 5875 5874 5873 5871 5870 5870 5869 5868 5867 5866 5866 5865 5865 5864 5864 5863 5863 5863 5862 5862 5863 5863 5863 5863 5864 5864 5865 5865 5866 5866 5867 5868 5869 5869 5869 5870 5870 5871 5873 5874 5875 5877 5879 5882 5884 5884 5885 5887 5888 5890 5890 5891 5892 5892 5892 5893 5894 5894 5895 5896 5897 5898 5899 5901 5902 5903 5904 5905 5906 5907 5908 5909 5909 5910 5912 5912 5913 5914
5887 5886 5884 5882 5881 5879 5879 5878 5877 5876 5875 5873 5872 5871 5870 5870 5869 5868 5867 5866 5866 5865 5865 5864 5864 5863 5863 5862 5862 5862 5862 5862 5862 5862 5863 5863 5864 5864 5865 5866 5866 5867 5868 5868 5869 5869 5869 5870 5871 5872 5873 5875 5877 5879 5880 5880 5883 5885 5886 5887 5888 5889 5890 5891 5891 5891 5892 5893 5894 5895 5896 5896 5898 5899 5900 5902 5903 5904 5905 5906 5907 5908 5909 5910 5911 5912 5913 5914
5886 5885 5883 5882 5880 5879 5878 5877 5877 5875 5874 5873 5872 5871 5870 5870 5869 5868 5867 5866 5866 5865 5864 5864 5864 5863 5863 5862 5862 5861 5861 5861 5861 5861 5862 5862 5862 5863 5864 5864 5865 5866 5867 5867 5868 5868 5868 5869 5870 5871 5872 5872 5874 5876 5877 5878 5880 5882 5883 5884 5885 5887 5888 5888 5888 5889 5890 5892 5893 5894 5894 5895 5896 5897 5899 5900 5902 5903 5904 5905 5906 5908 5909 5909 5910 5912 5913 5914
5885 5884 5883 5881 5880 5878 5878 5877 5876 5875 5874 5873 5872 5871 5870 5869 5868 5868 5867 5866 5865 5865 5864 5864 5863 5863 5862 5862 5861 5861 5861 5860 5860 5860 5860 5861 5861 5862 5863 5863 5864 5864 5865 5866 5866 5867 5867 5868 5869 5870 5871 5872 5873 5874 5875 5877 5878 5880 5881 5882 5883 5885 5886 5886 5886 5887 5889 5890 5891 5892 5893 5895 5896 5896 5897 5899 5900 5901 5903 5905 5906 5907 5908 5909 5910 5912 5913 5914
5884 5883 5882 5880 5879 5878 5877 5876 5875 5874 5873 5872 5871 5871 5870 5869 5868 5867 5867 5866 5865 5865 5864 5863 5862 5862 5861 5861 5860 5860 5860 5860 5860 5859 5859 5860 5860 5861 5861 5862 5862 5863 5864 5865 5865 5866 5866 5867 5868 5869 5870 5871 5872 5873 5874 5875 5876 5878 5879 5879 5881 5884 5885 5884 5884 5885 5887 5888 5889 5890 5891 5893 5894 5894 5895 5897 5898 5901 5903 5903 5905 5906 5907 5908 5910 5911 5912 5914
5883 5882 5881 5879 5878 5877 5876 5875 5875 5874 5873 5872 5871 5870 5869 5868 5868 5867 5866 5866 5865 5864 5863 5863 5862 5862 5861 5861 5860 5860 5859 5859 5859 5859 5858 5859 5859 5859 5859 5860 5860 5861 5862 5862 5863 5864 5865 5866 5867 5868 5869 5870 5870 5872 5873 5874 5874 5876 5877 5878 5880 5882 5882 5882 5883 5883 5885 5886 5887 5888 5890 5891 5892 5892 5893 5895 5898 5900 5901 5901 5902 5904 5906 5907 5909 5910 5912 5913
5882 5881 5880 5878 5877 5876 5875 5875 5874 5873 5872 5871 5870 5869 5869 5868 5867 5867 5866 5866 5865 5864 5863 5863 5862 5862 5861 5860 5859 5859 5858 5858 5858 5858 5858 5858 5857 5858 5858 5858 5859 5859 5860 5860 5861 5862 5863 5865 5866 5866 5867 5868 5869 5870 5871 5872 5873 5874 5875 5876 5878 5878 5879 5880 5881 5882 5883 5884 5885 5886 5887 5889 5890 5891 5892 5893 5896 5898 5899 5901 5901 5902 5904 5906 5908 5909 5911 5912
5880 5879 5878 5877 5876 5875 5874 5874 5873 5872 5871 5870 5869 5869 5868 5867 5867 5866 5866 5865 5864 5863 5863 5862 5861 5861 5860 5859 5859 5858 5858 5857 5857 5857 5857 5856 5856 5856 5856 5856 5857 5857 5858 5858 5859 5861 5861 5863 5864 5864 5865 5866 5867 5868 5869 5870 5871 5872 5874 5875 5875 5875 5876 5878 5879 5880 5881 5881 5883 5884 5886 5887 5888 5889 5890 5890 5892 5895 5899 5901 5902 5902 5903 5905 5906 5908 5910 5911
5879 5878 5877 5876 5875 5874 5873 5873 5872 5871 5871 5870 5869 5868 5867 5867 5866 5866 5865 5864 5864 5863 5862 5861 5861 5860 5860 5859 5858 5858 5857 5857 5856 5856 5856 5855 5855 5855 5855 5855 5855 5855 5856 5857 5858 5859 5860 5861 5861 5862 5863 5865 5866 5866 5867 5868 5869 5871 5873 5873 5873 5874 5875 5876 5877 5879 5880 5881 5882 5883 5886 5887 5886 5887 5888 5888 5889 5893 5896 5898 5901 5902 5902 5904 5906 5907 5909 5910
5877 5876 5875 5874 5874 5873 5872 5872 5871 5870 5870 5869 5868 5868 5867 5866 5866 5865 5864 5864 5863 5862 5861 5860 5860 5859 5859 5858 5858 5857 5857 5856 5856 5855 5855 5854 5854 5854 5854 5854 5854 5854 5855 5856 5857 5857 5858 5858 5859 5861 5863 5864 5865 5866 5866 5866 5868 5869 5870 5871 5872 5873 5873 5874 5875 5878 5880 5880 5880 5882 5884 5885 5884 5885 5886 5887 5888 5890 5892 5895 5898 5900 5901 5903 5905 5907 5908 5909
5876 5875 5874 5873 5872 5872 5871 5870 5870 5869 5869 5868 5868 5867 5866 5866 5865 5864 5864 5863 5862 5861 5861 5860 5859 5858 5858 5857 5857 5856 5856 5856 5855 5855 5854 5853 5853 5853 5852 5852 5853 5853 5854 5855 5855 5855 5855 5857 5858 5860 5862 5863 5864 5864 5864 5864 5866 5866 5867 5869 5871 5870 5871 5872 5873 5876 5877 5877 5879 5880 5881 5882 5882 5882 5884 5885 5886 5888 5890 5893 5895 5898 5900 5902 5903 5905 5907 5908
5874 5873 5872 5871 5871 5870 5870 5869 5869 5868 5868 5867 5867 5866 5865 5865 5864 5864 5863 5862 5862 5861 5860 5859 5859 5858 5857 5856 5856 5856 5855 5855 5855 5854 5853 5853 5852 5852 5852 5851 5851 5851 5852 5853 5853 5853 5854 5855 5857 5858 5860 5861 5862 5861 5861 5862 5863 5863 5865 5867 5868 5868 5869 5870 5871 5873 5874 5876 5878 5878 5879 5881 5881 5881 5882 5883 5884 5885 5888 5891 5894 5896 5898 5900 5901 5903 5905 5907
5872 5871 5870 5870 5869 5868 5868 5868 5867 5867 5866 5866 5866 5865 5865 5864 5863 5863 5862 5861 5861 5861 5860 5859 5858 5857 5856 5855 5855 5855 5854 5854 5853 5853 5852 5852 5852 5851 5851 5851 5850 5850 5851 5851 5851 5852 5853 5854 5855 5857 5858 5859 5859 5859 5860 5860 5861 5862 5864 5865 5865 5866 5867 5868 5870 5871 5872 5874 5876 5876 5877 5880 5881 5880 5880 5881 5882 5883 5886 5888 5891 5894 5896 5897 5899 5902 5904 5905
5870 5869 5869 5868 5867 5867 5866 5866 5865 5865 5865 5865 5864 5864 5863 5863 5863 5862 5861 5861 5860 5860 5859 5858 5857 5856 5855 5854 5854 5853 5853 5852 5852 5852 5851 5851 5850 5850 5850 5850 5849 5849 5850 5850 5851 5851 5852 5853 5854 5855 5856 5856 5857 5857 5858 5858 5858 5860 5862 5863 5864 5865 5865 5867 5868 5869 5871 5874 5874 5874 5875 5878 5879 5878 5878 5880 5881 5882 5883 5886 5889 5892 5894 5895 5897 5899 5902 5904
5869 5868 5867 5866 5866 5865 5865 5864 5864 5863 5863 5863 5863 5863 5862 5862 5861 5861 5860 5860 5860 5859 5858 5857 5856 5855 5855 5853 5853 5852 5852 5852 5851 5851 5850 5850 5850 5849 5849 5849 5849 5849 5849 5850 5850 5850 5851 5851 5852 5852 5853 5854 5854 5855 5856 5856 5857 5858 5860 5861 5863 5863 5864 5866 5867 5868 5871 5873 5872 5872 5874 5876 5877 5877 5877 5878 5879 5880 5882 5884 5887 5890 5892 5895 5896 5898 5900 5902
5867 5866 5865 5864 5864 5863 5863 5863 5862 5862 5862 5861 5861 5861 5861 5860 5860 5860 5859 5859 5859 5858 5857 5856 5855 5854 5854 5853 5852 5851 5851 5851 5850 5850 5850 5849 5849 5848 5848 5848 5848 5849 5850 5850 5849 5849 5849 5849 5850 5850 5851 5851 5852 5853 5853 5854 5855 5856 5858 5860 5860 5861 5863 5865 5866 5868 5871 5872 5871 5871 5872 5874 5876 5876 5876 5877 5877 5879 5880 5882 5884 5887 5890 5894 5895 5897 5899 5900
5865 5864 5863 5862 5862 5861 5861 5861 5860 5860 5860 5860 5859 5859 5859 5859 5858 5858 5858 5858 5857 5857 5856 5856 5855 5854 5853 5852 5851 5850 5850 5850 5849 5849 5849 5848 5848 5848 5847 5847 5847 5848 5850 5849 5849 5850 5849 5848 5848 5848 5848 5849 5851 5851 5851 5852 5853 5855 5857 5857 5858 5860 5862 5863 5864 5867 5869 5869 5869 5869 5870 5873 5875 5874 5875 5876 5876 5877 5878 5880 5881 5883 5887 5890 5893 5895 5897 5898
5862 5861 5861 5860 5860 5859 5859 5859 5858 5858 5858 5858 5858 5857 5857 5857 5857 5857 5856 5856 5856 5855 5855 5854 5854 5853 5851 5850 5850 5849 5849 5849 5848 5848 5848 5848 5847 5847 5847 5846 5846 5846 5847 5848 5848 5849 5850 5849 5847 5846 5847 5848 5849 5849 5850 5850 5851 5853 5854 5854 5856 5859 5860 5860 5862 5864 5866 5866 5865 5866 5869 5872 5873 5873 5873 5874 5875 5876 5877 5878 5879 5881 5884 5887 5889 5892 5894 5896
5860 5859 5858 5858 5857 5857 5856 5856 5856 5856 5856 5856 5856 5855 5855 5855 5855 5855 5855 5854 5854 5854 5853 5853 5852 5851 5850 5849 5848 5848 5848 5848 5847 5847 5847 5847 5846 5846 5846 5845 5845 5845 5845 5848 5847 5847 5849 5848 5845 5845 5846 5846 5847 5848 5848 5849 5850 5851 5852 5853 5854 5856 5857 5857 5859 5861 5863 5863 5864 5865 5868 5870 5871 5871 5871 5872 5873 5874 5875 5876 5878 5879 5882 5884 5886 5889 5891 5893
5857 5856 5856 5855 5855 5854 5854 5854 5854 5854 5854 5854 5854 5853 5853 5853 5853 5853 5853 5853 5852 5852 5852 5851 5851 5850 5849 5848 5847 5847 5846 5846 5846 5845 5845 5846 5845 5845 5845 5844 5844 5844 5844 5845 5845 5846 5847 5846 5843 5844 5845 5845 5846 5846 5846 5847 5848 5848 5850 5851 5852 5853 5854 5855 5857 5860 5861 5862 5863 5864 5866 5868 5869 5869 5870 5870 5871 5872 5873 5875 5876 5877 5878 5881 5884 5887 5889 5891
5854 5853 5853 5852 5852 5851 5851 5851 5851 5851 5851 5851 5851 5851 5851 5851 5851 5852 5851 5851 5851 5851 5850 5850 5849 5849 5848 5847 5846 5846 5845 5844 5844 5844 5844 5844 5844 5843 5843 5842 5842 5842 5842 5842 5843 5843 5845 5844 5842 5842 5843 5843 5844 5844 5844 5845 5847 5847 5848 5849 5850 5852 5853 5853 5856 5857 5858 5860 5861 5862 5864 5865 5867 5868 5868 5868 5869 5870 5871 5872 5873 5874 5874 5876 5881 5885 5887 5889
5851 5850 5850 5849 5849 5849 5848 5848 5848 5848 5848 5848 5849 5849 5849 5849 5849 5849 5849 5849 5849 5849 5848 5848 5848 5847 5847 5846 5845 5844 5844 5843 5843 5842 5842 5842 5842 5841 5841 5841 5840 5840 5840 5841 5841 5841 5842 5843 5841 5840 5841 5842 5842 5843 5842 5843 5845 5846 5847 5847 5847 5850 5850 5851 5854 5855 5856 5858 5859 5860 5862 5863 5864 5865 5865 5866 5868 5868 5868 5869 5870 5871 5871 5873 5877 5881 5884 5886
5847 5847 5846 5846 5846 5846 5845 5845 5845 5845 5845 5845 5846 5846 5846 5846 5847 5847 5847 5847 5847 5847 5846 5846 5846 5845 5845 5844 5843 5843 5842 5841 5841 5841 5840 5840 5839 5839 5839 5839 5839 5839 5839 5839 5839 5839 5840 5841 5841 5839 5839 5839 5840 5842 5841 5841 5842 5844 5846 5846 5846 5847 5849 5850 5851 5853 5855 5856 5857 5859 5860 5861 5862 5862 5862 5864 5866 5866 5867 5867 5868 5869 5870 5870 5873 5877 5880 5883
5844 5843 5843 5843 5843 5842 5842 5842 5842 5842 5842 5843 5842 5843 5843 5843 5844 5845 5844 5844 5844 5844 5844 5844 5843 5843 5842 5842 5841 5840 5840 5840 5839 5839 5838 5838 5838 5837 5837 5837 5837 5837 5837 5837 5837 5838 5838 5839 5840 5839 5838 5838 5838 5839 5839 5839 5840 5841 5843 5844 5845 5846 5847 5848 5849 5850 5852 5854 5856 5858 5859 5860 5860 5859 5860 5862 5863 5865 5866 5866 5866 5867 5868 5869 5870 5873 5877 5880
5840 5840 5839 5840 5839 5839 5839 5839 5839 5839 5839 5839 5839 5839 5840 5841 5841 5842 5842 5842 5841 5841 5841 5841 5840 5840 5840 5839 5839 5838 5838 5837 5837 5837 5836 5836 5836 5835 5835 5835 5835 5835 5835 5836 5835 5836 5837 5837 5838 5838 5837 5837 5836 5836 5837 5837 5837 5839 5841 5842 5843 5843 5845 5847 5847 5848 5850 5852 5854 5855 5856 5857 5857 5856 5858 5860 5861 5862 5864 5864 5864 5865 5866 5867 5868 5870 5873 5876
5836 5836 5836 5836 5836 5836 5835 5835 5835 5836 5836 5836 5836 5836 5837 5838 5838 5838 5839 5839 5839 5838 5838 5838 5838 5837 5837 5837 5836 5836 5835 5835 5835 5835 5834 5834 5834 5833 5833 5833 5834 5833 5834 5834 5833 5834 5835 5835 5836 5836 5834 5834 5834 5834 5835 5835 5836 5838 5839 5840 5841 5842 5844 5845 5846 5848 5849 5850 5852 5853 5854 5855 5854 5854 5856 5858 5859 5860 5862 5862 5863 5863 5864 5865 5866 5868 5870 5872
5832 5832 5832 5832 5832 5832 5832 5832 5832 5832 5832 5832 5833 5833 5834 5834 5835 5835 5836 5836 5836 5836 5835 5835 5835 5835 5835 5835 5834 5834 5833 5833 5833 5832 5832 5832 5831 5831 5831 5832 5832 5832 5832 5832 5832 5832 5833 5833 5834 5834 5832 5831 5832 5832 5832 5832 5833 5835 5837 5839 5841 5842 5843 5844 5846 5847 5847 5848 5850 5850 5851 5853 5852 5852 5854 5855 5857 5858 5860 5860 5861 5861 5862 5863 5864 5865 5866 5868
5828 5828 5828 5828 5828 5828 5828 5828 5828 5828 5828 5829 5829 5830 5831 5831 5831 5832 5833 5833 5833 5833 5833 5833 5833 5833 5833 5833 5832 5831 5831 5831 5831 5830 5830 5829 5829 5829 5829 5830 5830 5830 5830 5830 5830 5831 5831 5831 5832 5832 5831 5831 5831 5831 5831 5832 5832 5833 5835 5837 5839 5840 5841 5843 5845 5845 5845 5846 5847 5848 5850 5851 5850 5850 5852 5853 5854 5856 5857 5858 5859 5859 5860 5860 5861 5862 5863 5865
5823 5823 5823 5823 5823 5824 5824 5824 5825 5824 5825 5825 5826 5826 5827 5827 5828 5828 5829 5829 5830 5830 5830 5830 5830 5830 5830 5830 5830 5829 5829 5829 5828 5828 5827 5827 5827 5827 5827 5828 5828 5828 5828 5828 5828 5829 5829 5829 5830 5830 5830 5830 5829 5828 5829 5830 5831 5832 5833 5834 5836 5839 5840 5841 5841 5841 5842 5844 5845 5847 5848 5848 5847 5848 5849 5850 5852 5853 5854 5855 5856 5857 5857 5858 5858 5859 5860 5862
5818 5818 5819 5819 5819 5819 5820 5820 5821 5821 5821 5822 5822 5823 5823 5824 5824 5825 5825 5826 5826 5827 5826 5826 5827 5827 5828 5827 5827 5827 5827 5826 5826 5826 5825 5825 5824 5825 5825 5826 5826 5826 5826 5826 5826 5827 5827 5827 5828 5828 5828 5828 5827 5826 5826 5828 5829 5829 5830 5832 5834 5837 5838 5838 5839 5839 5840 5843 5844 5845 5845 5845 5845 5846 5846 5848 5849 5851 5852 5852 5853 5854 5855 5855 5855 5855 5857 5859
5813 5814 5814 5814 5815 5815 5816 5816 5816 5816 5817 5818 5818 5819 5820 5820 5820 5821 5821 5822 5823 5823 5823 5823 5824 5825 5825 5825 5824 5824 5824 5824 5824 5823 5823 5823 5822 5823 5823 5824 5824 5824 5824 5825 5825 5825 5825 5826 5826 5826 5826 5825 5825 5825 5825 5825 5826 5827 5828 5829 5831 5834 5835 5836 5837 5838 5840 5841 5841 5842 5843 5843 5844 5844 5845 5846 5848 5849 5850 5850 5850 5851 5852 5852 5852 5852 5854 5857
5808 5809 5809 5810 5810 5811 5811 5812 5812 5812 5813 5813 5814 5815 5816 5816 5817 5817 5817 5818 5819 5820 5820 5820 5821 5822 5822 5821 5822 5822 5822 5822 5822 5821 5821 5821 5820 5820 5821 5822 5822 5822 5822 5823 5823 5823 5824 5824 5824 5824 5824 5823 5824 5823 5823 5823 5823 5824 5826 5826 5828 5830 5832 5833 5834 5836 5838 5839 5839 5840 5841 5842 5843 5844 5844 5845 5846 5847 5848 5848 5849 5849 5850 5851 5850 5850 5851 5853
5803 5804 5804 5805 5805 5806 5807 5808 5808 5808 5808 5809 5810 5811 5812 5812 5813 5813 5814 5815 5815 5816 5816 5817 5818 5818 5818 5818 5819 5820 5820 5820 5819 5819 5819 5819 5818 5818 5819 5819 5820 5820 5820 5821 5821 5821 5821 5821 5822 5822 5822 5821 5821 5821 5821 5821 5821 5821 5823 5823 5825 5827 5829 5831 5832 5834 5836 5837 5838 5839 5840 5841 5842 5843 5844 5844 5845 5846 5847 5847 5848 5848 5849 5849 5849 5848 5848 5849
5798 5799 5800 5800 5801 5801 5802 5803 5804 5804 5804 5805 5805 5806 5807 5808 5809 5809 5810 5811 5811 5811 5812 5813 5814 5814 5815 5816 5817 5817 5817 5817 5817 5817 5817 5817 5816 5816 5816 5817 5817 5817 5818 5818 5819 5819 5819 5819 5819 5820 5820 5819 5819 5819 5819 5819 5819 5820 5820 5822 5823 5825 5826 5828 5829 5832 5834 5835 5837 5838 5838 5839 5841 5843 5844 5844 5843 5844 5845 5845 5846 5846 5846 5847 5847 5846 5845 5847
5793 5793 5794 5795 5796 5797 5798 5798 5799 5799 5799 5800 5801 5802 5803 5803 5804 5805 5806 5807 5807 5807 5808 5810 5810 5811 5812 5813 5814 5815 5815 5814 5814 5814 5814 5814 5814 5814 5814 5814 5814 5815 5816 5816 5816 5817 5817 5817 5817 5818 5818 5817 5817 5817 5817 5817 5817 5818 5819 5820 5821 5823 5824 5825 5827 5829 5831 5833 5835 5836 5836 5837 5840 5841 5842 5842 5842 5842 5843 5843 5844 5844 5844 5844 5845 5845 5844 5845
5788 5788 5789 5790 5791 5792 5793 5793 5794 5794 5795 5796 5796 5797 5798 5798 5799 5801 5801 5802 5803 5803 5804 5806 5807 5808 5809 5810 5812 5813 5811 5810 5811 5812 5812 5812 5812 5811 5811 5811 5812 5812 5813 5813 5814 5814 5814 5815 5815 5815 5816 5815 5814 5815 5815 5814 5815 5815 5815 5816 5817 5819 5821 5823 5825 5827 5828 5830 5832 5834 5834 5835 5837 5839 5839 5840 5840 5841 5841 5842 5842 5843 5843 5843 5844 5845 5844 5844